Location: Newark
(48.9886°N, 1.2358°E)
Time: 03:50:13
(UTC+00:00)

Transit 4A - Pass Details

Date: 28 November 2019
Orbit: 870 x 975 km, 66.8° (Epoch: 12 December)

Event Time Altitude Azimuth Distance (km) Brightness Sun altitude
Exits shadow 05:01:01 48° 263° (W) 1,132 7.9 -22.6°
Maximum altitude 05:01:36 50° 243° (WSW) 1,106 7.9 -22.5°
Drops below altitude 10° 05:07:09 10° 170° (S) 2,510 10.4 -21.6°
Sets 05:09:40 0° 165° (SSE) 3,443 11.2 -21.2°
